FW9794 Weather Reports


time (UTC)temp
F
wind
direction
speed
knots
gust
knots
rain 1hr
in
rain 24hr
in
rain mn
in
humidity
%
barometer
mb
20260504050547 45 0 0.0 0.0 0.00 0.00 0.00 83 1016.5
20260504045546 46 0 0.0 0.9 0.00 0.00 0.00 83 1016.4
20260504045047 46 0 0.0 0.9 0.00 0.00 0.00 83 1016.4
20260504044552 46 0 0.0 1.7 0.00 0.00 0.00 83 1016.3
20260504044049 46 0 0.0 2.6 0.00 0.00 0.00 83 1016.2
20260504043552 46 0 0.0 2.6 0.00 0.00 0.00 83 1016.2
20260504043053 46 0 0.0 2.6 0.00 0.00 0.00 83 1016.1
20260504042552 46 360 0.0 2.6 0.00 0.00 0.00 82 1016.1
20260504042048 47 360 0.0 1.7 0.00 0.00 0.00 82 1016.1
20260504041553 47 0 0.0 1.7 0.00 0.00 0.00 82 1016.0
20260504041048 47 0 0.0 1.7 0.00 0.00 0.00 82 1016.0
20260504040552 47 0 0.9 1.7 0.00 0.00 0.00 82 1016.0
20260504040052 47 360 0.0 1.7 0.00 0.00 0.00 81 1016.1
20260504035549 47 0 0.0 1.7 0.00 0.00 0.00 79 1016.0
20260504035049 47 0 0.0 1.7 0.00 0.00 0.00 77 1016.0
20260504034607 48 0 0.0 0.9 0.00 0.00 0.00 77 1015.9
20260504034047 48 0 0.0 0.9 0.00 0.00 0.00 78 1016.0
20260504033548 48 0 0.0 0.0 0.00 0.00 0.00 78 1016.0
20260504033050 48 0 0.0 0.9 0.00 0.00 0.00 77 1015.8
20260504032547 49 0 0.0 0.9 0.00 0.00 0.00 75 1015.8
20260504032050 49 0 0.0 0.9 0.00 0.00 0.00 74 1015.8
20260504031552 49 0 0.0 0.0 0.00 0.00 0.00 75 1015.8
20260504031045 49 0 0.0 0.0 0.00 0.00 0.00 73 1015.8
20260504030545 49 0 0.0 0.9 0.00 0.00 0.00 73 1015.8
20260504030054 50 0 0.0 0.9 0.00 0.00 0.00 71 1015.7
20260504025546 50 0 0.0 0.9 0.00 0.00 0.00 71 1015.7
20260504025046 50 0 0.0 0.9 0.00 0.00 0.00 71 1015.7
20260504024551 50 0 0.0 0.9 0.00 0.00 0.00 70 1015.8
20260504024052 51 0 0.0 0.9 0.00 0.00 0.00 70 1015.8
20260504023549 51 360 0.0 0.9 0.00 0.00 0.00 71 1015.8
20260504023051 51 0 0.0 0.9 0.00 0.00 0.00 69 1015.9
20260504022549 51 0 0.0 0.9 0.00 0.00 0.00 69 1015.7
20260504022050 51 360 0.0 0.9 0.00 0.00 0.00 69 1015.7
20260504021554 52 0 0.0 0.9 0.00 0.00 0.00 70 1015.6
20260504021048 52 0 0.0 1.7 0.00 0.00 0.00 68 1015.5
20260504020547 52 360 0.0 1.7 0.00 0.00 0.00 67 1015.4
20260504020100 52 360 0.0 1.7 0.00 0.00 0.00 66 1015.5
20260504015548 53 360 0.0 1.7 0.00 0.00 0.00 67 1015.5
20260504015047 53 360 0.9 2.6 0.00 0.00 0.00 65 1015.5
20260504014613 53 360 0.9 2.6 0.00 0.00 0.00 63 1015.4
20260504014048 54 360 1.7 2.6 0.00 0.00 0.00 63 1015.4
20260504013552 55 360 0.0 1.7 0.00 0.00 0.00 61 1015.5
20260504013059 55 0 0.0 0.9 0.00 0.00 0.00 57 1015.6
20260504012549 56 0 0.0 0.9 0.00 0.00 0.00 57 1015.6
20260504012049 56 0 0.0 0.9 0.00 0.00 0.00 57 1015.6
20260504011559 57 0 0.0 0.9 0.00 0.00 0.00 57 1015.5
20260504011047 57 0 0.0 0.9 0.00 0.00 0.00 55 1015.4
20260504010549 57 0 0.0 0.9 0.00 0.00 0.00 54 1015.4
20260504010059 58 0 0.0 1.7 0.00 0.00 0.00 53 1015.4
20260504005549 58 0 0.0 1.7 0.00 0.00 0.00 52 1015.4
20260504005047 58 360 0.0 1.7 0.00 0.00 0.00 50 1015.3
20260504004553 59 0 0.0 0.9 0.00 0.00 0.00 50 1015.3
20260504004047 59 0 0.0 0.9 0.00 0.00 0.00 49 1015.3
20260504003548 59 0 0.0 1.7 0.00 0.00 0.00 49 1015.2
20260504003059 60 0 0.0 1.7 0.00 0.00 0.00 48 1015.2
20260504002546 60 0 0.0 1.7 0.00 0.00 0.00 48 1015.2
20260504002046 60 360 0.0 1.7 0.00 0.00 0.00 48 1015.2
20260504001551 61 0 0.0 1.7 0.00 0.00 0.00 47 1015.4
20260504001048 61 0 0.0 1.7 0.00 0.00 0.00 47 1015.4
20260504000547 62 0 0.0 2.6 0.00 0.00 0.00 46 1015.4
20260504000053 62 0 0.0 2.6 0.00 0.00 0.00 46 1015.3
20260503235547 62 360 0.0 2.6 0.00 0.00 0.00 45 1015.4
20260503235047 63 0 0.0 2.6 0.00 0.00 0.00 45 1015.4
20260503234554 63 0 0.0 2.6 0.00 0.00 0.00 44 1015.5
20260503234049 63 0 0.0 2.6 0.00 0.00 0.00 43 1015.5
20260503233549 63 360 0.9 4.3 0.00 0.00 0.00 43 1015.6
20260503233053 64 0 0.0 4.3 0.00 0.00 0.00 42 1015.6
20260503232550 64 360 0.9 4.3 0.00 0.00 0.00 42 1015.6
20260503232049 64 360 0.9 4.3 0.00 0.00 0.00 42 1015.7
20260503231551 64 360 0.0 4.3 0.00 0.00 0.00 41 1015.8
20260503231047 64 0 0.9 4.3 0.00 0.00 0.00 41 1015.8
20260503230548 64 0 0.9 5.2 0.00 0.00 0.00 41 1015.9
20260503230051 64 360 0.0 5.2 0.00 0.00 0.00 42 1015.9
20260503225547 64 360 1.7 5.2 0.00 0.00 0.00 40 1016.0
20260503225047 65 360 0.9 3.5 0.00 0.00 0.00 40 1016.0
20260503224551 65 360 0.9 5.2 0.00 0.00 0.00 39 1016.0
20260503224050 65 360 1.7 7.0 0.00 0.00 0.00 41 1016.0
20260503223549 65 360 0.9 7.0 0.00 0.00 0.00 41 1016.0
20260503223052 65 360 1.7 8.7 0.00 0.00 0.00 41 1016.1
20260503222549 65 360 2.6 8.7 0.00 0.00 0.00 40 1016.1
20260503222048 65 360 1.7 7.8 0.00 0.00 0.00 43 1016.1
20260503221556 65 0 0.9 7.0 0.00 0.00 0.00 41 1016.2
20260503221050 65 360 0.9 9.6 0.00 0.00 0.00 40 1016.2
20260503220548 65 360 1.7 9.6 0.00 0.00 0.00 41 1016.3
20260503215546 65 360 1.7 7.8 0.00 0.00 0.00 42 1016.4
20260503215051 65 360 2.6 7.0 0.00 0.00 0.00 42 1016.4
20260503214555 65 360 3.5 7.0 0.00 0.00 0.00 39 1016.4
20260503214046 65 360 2.6 7.0 0.00 0.00 0.00 42 1016.4
20260503213549 65 360 2.6 7.0 0.00 0.00 0.00 40 1016.4
20260503213107 65 229 0.9 7.0 0.00 0.00 0.00 45 1016.5
20260503212546 65 242 2.6 7.8 0.00 0.00 0.00 43 1016.4
20260503212049 65 273 3.5 7.8 0.00 0.00 0.00 41 1016.5
20260503211554 65 205 2.6 7.8 0.00 0.00 0.00 42 1016.6
20260503211048 65 250 3.5 8.7 0.00 0.00 0.00 42 1016.6
20260503210548 65 276 4.3 8.7 0.00 0.00 0.00 42 1016.6
20260503205549 65 226 3.5 10.4 0.00 0.00 0.00 41 1016.7
20260503205047 65 229 2.6 11.3 0.00 0.00 0.00 44 1016.7
20260503204556 65 0 2.6 11.3 0.00 0.00 0.00 43 1016.8
20260503204050 65 259 2.6 8.7 0.00 0.00 0.00 44 1016.8
20260503203547 65 287 2.6 12.2 0.00 0.00 0.00 42 1017.0
20260503203056 64 243 4.3 12.2 0.00 0.00 0.00 44 1017.1
20260503202548 65 223 4.3 10.4 0.00 0.00 0.00 41 1017.2
20260503202047 65 259 4.3 10.4 0.00 0.00 0.00 41 1017.3
20260503201554 65 296 5.2 10.4 0.00 0.00 0.00 43 1017.3
20260503201048 65 345 0.9 13.0 0.00 0.00 0.00 45 1017.3
20260503200552 65 316 4.3 13.0 0.00 0.00 0.00 40 1017.5
20260503200057 66 297 7.8 13.0 0.00 0.00 0.00 41 1017.6
20260503195548 66 292 2.6 9.6 0.00 0.00 0.00 41 1017.6
20260503195046 67 176 0.9 8.7 0.00 0.00 0.00 43 1017.7
20260503194556 67 277 1.7 12.2 0.00 0.00 0.00 40 1017.6
20260503194049 67 263 6.1 12.2 0.00 0.00 0.00 40 1017.8
20260503193549 67 257 2.6 8.7 0.00 0.00 0.00 40 1017.9
20260503193109 67 284 0.9 7.8 0.00 0.00 0.00 40 1018.0
20260503192550 66 268 1.7 7.8 0.00 0.00 0.00 40 1018.1
20260503192048 67 296 2.6 9.6 0.00 0.00 0.00 39 1018.1
20260503191557 69 297 4.3 9.6 0.00 0.00 0.00 37 1018.2
20260503191045 70 348 0.9 6.1 0.00 0.00 0.00 33 1018.2
20260503190546 70 60 1.7 8.7 0.00 0.00 0.00 36 1018.3
20260503190055 70 266 1.7 8.7 0.00 0.00 0.00 38 1018.4
20260503185546 70 238 2.6 8.7 0.00 0.00 0.00 38 1018.3
20260503185051 68 76 3.5 7.0 0.00 0.00 0.00 38 1018.4
20260503184608 67 145 0.9 7.0 0.00 0.00 0.00 42 1018.4
20260503184047 67 343 1.7 12.2 0.00 0.00 0.00 37 1018.5
20260503183545 69 234 4.3 12.2 0.00 0.00 0.00 35 1018.6
20260503183106 70 266 3.5 12.2 0.00 0.00 0.00 36 1018.6
20260503182545 70 211 1.7 7.0 0.00 0.00 0.00 38 1018.7
20260503182048 70 0 1.7 7.8 0.00 0.00 0.00 31 1018.7
20260503181607 68 158 0.9 7.8 0.00 0.00 0.00 41 1018.9
20260503181046 67 246 0.9 5.2 0.00 0.00 0.00 42 1019.0
20260503180546 66 0 1.7 6.1 0.00 0.00 0.00 40 1018.9
20260503180056 66 0 3.5 7.0 0.00 0.00 0.00 38 1019.0
20260503175549 66 308 1.7 9.6 0.00 0.00 0.00 38 1019.1
20260503175047 68 331 2.6 9.6 0.00 0.00 0.00 38 1019.1
20260503174556 68 248 2.6 8.7 0.00 0.00 0.00 39 1019.3
20260503174047 67 200 1.7 7.0 0.00 0.00 0.00 41 1019.3
20260503173547 66 164 0.9 6.1 0.00 0.00 0.00 40 1019.4
20260503173100 66 257 2.6 6.1 0.00 0.00 0.00 41 1019.5
20260503172548 66 306 0.9 5.2 0.00 0.00 0.00 40 1019.4
20260503172046 66 279 1.7 4.3 0.00 0.00 0.00 41 1019.5
20260503171548 66 313 0.9 7.8 0.00 0.00 0.00 41 1019.7
20260503171047 66 271 2.6 7.8 0.00 0.00 0.00 42 1019.8
20260503170547 65 180 0.0 8.7 0.00 0.00 0.00 44 1019.9
20260503150545 58 69 0.9 2.6 0.00 0.00 0.00 47 1020.7
20260503131046 48 326 0.0 2.6 0.00 0.00 0.00 76 1020.6
20260503130547 47 111 0.0 1.7 0.00 0.00 0.00 80 1020.6
20260503110547 39 0 0.0 0.0 0.00 0.00 0.00 92 1019.3
20260503081622 46 0 0.0 1.7 0.00 0.00 0.00 80 1018.0
20260503081049 47 0 0.0 0.9 0.00 0.00 0.00 79 1017.9
20260503080549 47 0 0.0 0.9 0.00 0.00 0.00 79 1017.9
20260503080112 47 0 0.0 0.9 0.00 0.00 0.00 78 1017.8
20260503072547 49 0 0.0 0.0 0.00 0.00 0.00 76 1017.4
20260503072047 49 0 0.0 0.0 0.00 0.00 0.00 76 1017.4
20260503071556 49 0 0.0 0.0 0.00 0.00 0.00 75 1017.4
20260503071047 49 0 0.0 0.0 0.00 0.00 0.00 75 1017.5
20260503070549 49 0 0.0 0.0 0.00 0.00 0.00 75 1017.4
20260503055049 50 0 0.0 0.9 0.00 0.00 0.00 78 1017.3
20260503054555 50 0 0.0 0.9 0.00 0.00 0.00 78 1017.2
20260503054047 50 0 0.0 0.9 0.00 0.00 0.00 77 1017.2
20260503053547 50 0 0.0 0.9 0.00 0.00 0.00 77 1017.2
20260503053053 50 0 0.0 0.9 0.00 0.00 0.00 76 1017.2
20260503052547 50 0 0.0 0.0 0.00 0.00 0.00 77 1017.2
20260503052046 50 0 0.0 0.0 0.00 0.00 0.00 74 1017.2